GW6945 Weather Reports


time (UTC)temp
C
wind
direction
speed
KPH
gust
KPH
rain 1hr
cm
rain 24hr
cm
rain mn
cm
humidity
%
barometer
mb
20260503200118 17 229 11.3 16.1 0.00 0.00 0.00 35 1050.5
20260503195615 16 207 6.4 12.9 0.00 0.00 0.00 37 1050.4
20260503195112 16 242 8.0 12.9 0.00 0.00 0.00 35 1050.7
20260503194609 17 213 9.7 11.3 0.00 0.00 0.00 34 1050.7
20260503194104 16 271 6.4 9.7 0.00 0.00 0.00 36 1050.9
20260503193601 16 216 6.4 16.1 0.00 0.00 0.00 35 1051.0
20260503193056 16 207 12.9 16.1 0.00 0.00 0.00 32 1051.1
20260503192552 16 238 9.7 11.3 0.00 0.00 0.00 37 1051.0
20260503192048 16 192 9.7 12.9 0.00 0.00 0.00 40 1051.3
20260503191545 16 295 9.7 16.1 0.00 0.00 0.00 34 1051.2
20260503191042 16 240 9.7 14.5 0.00 0.00 0.00 37 1051.4
20260503190539 16 241 12.9 16.1 0.00 0.00 0.00 36 1051.3
20260503190036 16 240 9.7 12.9 0.00 0.00 0.00 36 1051.5
20260503185533 16 209 4.8 4.8 0.00 0.00 0.00 37 1051.5
20260503185032 16 279 8.0 9.7 0.00 0.00 0.00 34 1051.5
20260503184529 16 226 6.4 6.4 0.00 0.00 0.00 37 1051.7
20260503184025 16 254 6.4 6.4 0.00 0.00 0.00 39 1051.8
20260503183522 16 223 4.8 4.8 0.00 0.00 0.00 35 1051.9
20260503183019 15 208 1.6 3.2 0.00 0.00 0.00 37 1051.8
20260503182518 15 255 11.3 12.9 0.00 0.00 0.00 34 1052.1
20260503182015 16 231 11.3 16.1 0.00 0.00 0.00 36 1051.8
20260503181512 16 199 8.0 11.3 0.00 0.00 0.00 34 1052.0
20260503181008 15 204 9.7 12.9 0.00 0.00 0.00 32 1052.1
20260503180506 15 169 3.2 9.7 0.00 0.00 0.00 39 1052.1
20260503180003 15 253 3.2 3.2 0.00 0.00 0.00 39 1052.1
20260503175500 15 240 9.7 12.9 0.00 0.00 0.00 38 1052.3
20260503174956 15 234 9.7 12.9 0.00 0.00 0.00 36 1052.6
20260503174455 15 223 1.6 3.2 0.00 0.00 0.00 41 1052.4
20260503173950 15 217 9.7 11.3 0.00 0.00 0.00 36 1052.6
20260503173445 15 234 6.4 9.7 0.00 0.00 0.00 35 1052.7
20260503172943 15 218 3.2 3.2 0.00 0.00 0.00 41 1052.6
20260503172440 14 286 0.0 6.4 0.00 0.00 0.00 42 1052.7
20260503171936 15 316 6.4 9.7 0.00 0.00 0.00 33 1052.8
20260503171433 15 182 4.8 4.8 0.00 0.00 0.00 33 1053.2
20260503170931 15 201 3.2 11.3 0.00 0.00 0.00 32 1053.4
20260503170427 15 255 6.4 9.7 0.00 0.00 0.00 35 1053.3
20260503150819 13 196 4.8 12.9 0.00 0.00 0.00 38 1054.3
20260503150315 13 238 4.8 6.4 0.00 0.00 0.00 39 1054.4
20260503140240 11 212 4.8 9.7 0.00 0.00 0.00 49 1054.4
20260503131209 9 214 3.2 3.2 0.00 0.00 0.00 56 1054.3
20260503130707 8 209 3.2 4.8 0.00 0.00 0.00 58 1054.1
20260503130204 8 221 4.8 4.8 0.00 0.00 0.00 60 1054.2
20260503120129 4 208 3.2 3.2 0.00 0.00 0.00 73 1054.0
20260503110557 2 205 1.6 3.2 0.00 0.00 0.00 78 1053.4
20260503090444 0 248 0.0 0.0 0.00 0.00 0.00 90 1052.7
20260503081410 0 249 0.0 0.0 0.00 0.00 0.00 91 1052.4
20260503080907 0 249 0.0 0.0 0.00 0.00 0.00 91 1052.4
20260503080404 0 250 0.0 0.0 0.00 0.00 0.00 91 1052.3
20260503072840 0 259 0.0 0.0 0.00 0.00 0.00 88 1052.4
20260503072337 1 259 0.0 0.0 0.00 0.00 0.00 87 1052.3
20260503071833 1 259 0.0 0.0 0.00 0.00 0.00 87 1052.2
20260503071331 1 259 0.0 0.0 0.00 0.00 0.00 87 1052.2
20260503070827 1 259 0.0 0.0 0.00 0.00 0.00 87 1052.3
20260503070325 1 259 0.0 0.0 0.00 0.00 0.00 86 1052.3
20260503060250 2 301 0.0 0.0 0.00 0.00 0.00 81 1052.3
20260503054737 3 301 0.0 0.0 0.00 0.00 0.00 80 1052.5
20260503054234 3 301 0.0 0.0 0.00 0.00 0.00 79 1052.5
20260503053732 3 301 0.0 0.0 0.00 0.00 0.00 76 1052.5
20260503053231 3 301 0.0 0.0 0.00 0.00 0.00 79 1052.4
20260503052726 3 301 0.0 0.0 0.00 0.00 0.00 80 1052.7
20260503052223 3 301 0.0 0.0 0.00 0.00 0.00 76 1052.6
20260503051718 3 301 0.0 0.0 0.00 0.00 0.00 78 1052.7
20260503051216 3 301 0.0 0.0 0.00 0.00 0.00 77 1052.5
20260503050712 3 301 0.0 0.0 0.00 0.00 0.00 75 1052.5
20260503050209 3 301 0.0 0.0 0.00 0.00 0.00 76 1052.6
20260503045707 3 301 0.0 0.0 0.00 0.00 0.00 76 1052.7
20260503045204 3 301 0.0 0.0 0.00 0.00 0.00 73 1052.5
20260503044700 3 301 0.0 0.0 0.00 0.00 0.00 71 1052.5
20260503044158 3 301 0.0 0.0 0.00 0.00 0.00 71 1052.6
20260503043654 3 301 0.0 0.0 0.00 0.00 0.00 73 1052.5
20260503043152 3 301 0.0 0.0 0.00 0.00 0.00 74 1052.7
20260503042648 3 301 0.0 0.0 0.00 0.00 0.00 74 1052.6
20260503042144 3 301 0.0 0.0 0.00 0.00 0.00 75 1052.3
20260503041641 3 301 0.0 0.0 0.00 0.00 0.00 75 1052.4
20260503041138 3 301 0.0 0.0 0.00 0.00 0.00 74 1052.5
20260503040636 4 301 0.0 0.0 0.00 0.00 0.00 74 1052.5
20260503040133 4 301 0.0 0.0 0.00 0.00 0.00 74 1052.3
20260503035629 4 301 0.0 0.0 0.00 0.00 0.00 73 1052.3
20260503035127 4 301 0.0 0.0 0.00 0.00 0.00 75 1052.6
20260503034624 4 301 0.0 0.0 0.00 0.00 0.00 78 1052.3
20260503034121 4 301 0.0 0.0 0.00 0.00 0.00 80 1052.2
20260503033619 3 301 0.0 0.0 0.00 0.00 0.00 76 1052.5
20260503033116 3 301 0.0 0.0 0.00 0.00 0.00 76 1052.3
20260503032615 4 301 0.0 0.0 0.00 0.00 0.00 74 1052.2
20260503032113 4 301 0.0 0.0 0.00 0.00 0.00 75 1052.0
20260503031610 4 301 0.0 0.0 0.00 0.00 0.00 75 1052.2
20260503031107 4 301 0.0 0.0 0.00 0.00 0.00 74 1052.3
20260503030603 4 301 0.0 0.0 0.00 0.00 0.00 75 1052.2
20260503030100 4 301 0.0 0.0 0.00 0.00 0.00 75 1052.2
20260503025557 4 301 0.0 0.0 0.00 0.00 0.00 75 1052.1
20260503025055 4 301 0.0 0.0 0.00 0.00 0.00 75 1052.2
20260503024550 4 301 0.0 0.0 0.00 0.00 0.00 78 1052.2
20260503024048 4 301 0.0 0.0 0.00 0.00 0.00 77 1052.0
20260503023544 5 301 0.0 0.0 0.00 0.00 0.00 77 1051.9
20260503023042 5 301 0.0 0.0 0.00 0.00 0.00 78 1051.9
20260503022538 5 301 0.0 0.0 0.00 0.00 0.00 74 1051.7
20260503022033 5 301 0.0 0.0 0.00 0.00 0.00 73 1051.7
20260503021530 6 301 0.0 0.0 0.00 0.00 0.00 71 1051.6
20260503021027 6 301 0.0 0.0 0.00 0.00 0.00 71 1051.4
20260503020524 6 301 1.6 1.6 0.00 0.00 0.00 70 1051.3
20260503020021 6 301 0.0 1.6 0.00 0.00 0.00 69 1051.2
20260503015517 7 301 0.0 0.0 0.00 0.00 0.00 67 1051.4
20260503015014 7 301 0.0 0.0 0.00 0.00 0.00 67 1051.1
20260503014510 7 301 0.0 0.0 0.00 0.00 0.00 68 1051.2
20260503014009 7 301 0.0 0.0 0.00 0.00 0.00 69 1051.0
20260503013506 7 301 0.0 0.0 0.00 0.00 0.00 70 1051.1
20260503013003 7 301 0.0 0.0 0.00 0.00 0.00 68 1051.0
20260503012500 7 301 0.0 0.0 0.00 0.00 0.00 68 1050.9
20260503011956 7 301 0.0 0.0 0.00 0.00 0.00 67 1050.9
20260503011453 7 301 0.0 0.0 0.00 0.00 0.00 65 1050.8
20260503010950 7 301 0.0 0.0 0.00 0.00 0.00 64 1050.8
20260503010447 8 301 0.0 0.0 0.00 0.00 0.00 62 1050.8
20260503005944 8 301 0.0 0.0 0.00 0.00 0.00 61 1050.7
20260503005442 8 301 0.0 0.0 0.00 0.00 0.00 61 1050.8
20260503004938 8 301 0.0 1.6 0.00 0.00 0.00 61 1050.7
20260503004435 8 301 1.6 1.6 0.00 0.00 0.00 62 1050.7
20260503003933 8 301 1.6 1.6 0.00 0.00 0.00 62 1050.6
20260503003429 8 301 1.6 1.6 0.00 0.00 0.00 61 1050.6
20260503002926 9 301 1.6 1.6 0.00 0.00 0.00 60 1050.6
20260503002424 9 301 1.6 1.6 0.00 0.00 0.00 58 1050.3
20260503001920 10 301 1.6 3.2 0.00 0.00 0.00 59 1050.4
20260503001416 10 299 1.6 4.8 0.00 0.00 0.00 57 1050.2
20260503000914 10 302 3.2 4.8 0.00 0.00 0.00 55 1050.2
20260503000411 10 295 3.2 4.8 0.00 0.00 0.00 56 1050.2
20260502235908 10 298 4.8 4.8 0.00 0.00 0.00 54 1050.0
20260502235405 10 299 6.4 6.4 0.00 0.00 0.00 52 1050.0
20260502234902 10 296 4.8 4.8 0.00 0.00 0.00 55 1050.1
20260502234359 10 313 3.2 4.8 0.00 0.00 0.00 56 1050.0
20260502233856 10 309 4.8 4.8 0.00 0.00 0.00 56 1050.0
20260502233351 11 303 3.2 9.7 0.00 0.00 0.00 52 1049.8
20260502232849 11 304 8.0 9.7 0.00 0.00 0.00 50 1050.0
20260502232345 11 304 6.4 9.7 0.00 0.00 0.00 49 1049.9
20260502231842 11 325 6.4 6.4 0.00 0.00 0.00 51 1049.9
20260502231339 11 301 3.2 4.8 0.00 0.00 0.00 54 1049.9
20260502230837 11 299 4.8 9.7 0.00 0.00 0.00 49 1050.0
20260502230335 11 306 6.4 9.7 0.00 0.00 0.00 47 1049.9
20260502225832 11 320 6.4 6.4 0.00 0.00 0.00 50 1050.0
20260502225328 12 316 6.4 9.7 0.00 0.00 0.00 50 1049.9
20260502224825 11 303 8.0 12.9 0.00 0.00 0.00 48 1050.0
20260502224321 11 303 3.2 6.4 0.00 0.00 0.00 50 1050.1
20260502223819 11 301 9.7 11.3 0.00 0.00 0.00 49 1050.1
20260502223317 11 319 6.4 9.7 0.00 0.00 0.00 51 1050.1
20260502222815 11 315 4.8 4.8 0.00 0.00 0.00 51 1050.0
20260502222312 11 331 3.2 3.2 0.00 0.00 0.00 52 1050.1
20260502221807 11 323 4.8 6.4 0.00 0.00 0.00 49 1050.1
20260502221303 11 304 8.0 11.3 0.00 0.00 0.00 50 1050.0
20260502220801 11 282 9.7 11.3 0.00 0.00 0.00 51 1050.2
20260502220256 11 309 8.0 9.7 0.00 0.00 0.00 49 1050.2
20260502215754 12 300 6.4 6.4 0.00 0.00 0.00 52 1050.0
20260502215251 11 309 4.8 6.4 0.00 0.00 0.00 53 1050.1
20260502214748 11 310 8.0 9.7 0.00 0.00 0.00 51 1049.9
20260502214244 12 300 8.0 11.3 0.00 0.00 0.00 49 1049.9
20260502213742 12 308 4.8 4.8 0.00 0.00 0.00 51 1049.8
20260502213239 12 302 9.7 16.1 0.00 0.00 0.00 48 1049.8
20260502212738 12 316 4.8 4.8 0.00 0.00 0.00 49 1049.7
20260502212236 12 310 3.2 3.2 0.00 0.00 0.00 54 1049.9
20260502211731 11 311 4.8 4.8 0.00 0.00 0.00 54 1049.8
20260502211228 11 315 4.8 6.4 0.00 0.00 0.00 55 1049.9
20260502210725 11 310 1.6 1.6 0.00 0.00 0.00 57 1049.9
20260502210223 11 330 4.8 6.4 0.00 0.00 0.00 53 1050.0
20260502205720 11 329 3.2 4.8 0.00 0.00 0.00 55 1049.9
20260502205216 11 287 6.4 6.4 0.00 0.00 0.00 50 1050.0
20260502204713 11 287 6.4 9.7 0.00 0.00 0.00 50 1050.0
20260502204211 11 307 8.0 9.7 0.00 0.00 0.00 50 1049.9
20260502203708 12 308 6.4 11.3 0.00 0.00 0.00 50 1049.9
20260502203206 12 317 6.4 4.8 0.00 0.00 0.00 49 1049.8
20260502202700 12 301 6.4 6.4 0.00 0.00 0.00 51 1050.0
20260502202159 12 304 6.4 12.9 0.00 0.00 0.00 50 1049.8
20260502201656 11 259 6.4 6.4 0.00 0.00 0.00 50 1049.9
20260502201152 12 286 8.0 9.7 0.00 0.00 0.00 52 1050.0
20260502200648 11 300 4.8 4.8 0.00 0.00 0.00 54 1050.1